Location: Newark
(49.0903°N, 0.8053°W)
Time: 15:23:11
(UTC+00:00)

ISS - Visible Passes

Search period start: 26 September 2020 00:00
Search period end: 06 October 2020 00:00
Orbit: 419 x 421 km, 51.6° (Epoch: 27 September)

Date Brightness Start Highest point End Pass type
(mag) Time Alt. Az. Time Alt. Az. Time Alt. Az.
26 Sep -3.4 19:46:33 10° WNW 19:49:53 55° N 19:50:08 53° NNE visible
27 Sep -3.2 18:59:14 10° WNW 19:02:34 53° N 19:04:38 20° ENE visible
27 Sep -1.3 20:36:11 10° WNW 20:37:36 23° WNW 20:37:36 23° WNW visible
28 Sep -3.2 18:11:54 10° W 18:15:13 54° N 18:18:33 10° ENE visible
28 Sep -3.6 19:48:54 10° WNW 19:52:06 71° NNW 19:52:06 71° NNW visible
29 Sep -3.5 19:01:37 10° WNW 19:04:59 62° N 19:06:36 27° E visible
29 Sep -1.0 20:38:31 10° WNW 20:39:34 18° W 20:39:34 18° W visible
30 Sep -3.3 18:14:18 10° WNW 18:17:38 55° N 18:20:59 10° E visible
30 Sep -3.2 19:51:12 10° WNW 19:54:05 55° WSW 19:54:05 55° WSW visible
01 Oct -3.8 19:03:53 10° WNW 19:07:16 85° SSW 19:08:38 33° ESE visible
01 Oct -0.6 20:41:10 10° W 20:41:37 12° W 20:41:37 12° W visible
02 Oct -3.7 18:16:34 10° WNW 18:19:58 75° NNE 18:23:14 11° ESE visible
02 Oct -2.1 19:53:36 10° W 19:56:12 29° SW 19:56:12 29° SW visible
03 Oct -2.9 19:06:09 10° WNW 19:09:24 43° SSW 19:10:51 26° SSE visible
04 Oct -3.4 18:18:47 10° WNW 18:22:08 62° SSW 18:25:27 10° SE visible
04 Oct -1.1 19:56:39 10° WSW 19:58:25 14° SW 19:58:33 14° SW visible
05 Oct -1.5 19:08:43 10° W 19:11:17 20° SW 19:13:22 12° S visible
